Home > Weather > Hereford > Past weeks

Flag for U.S.A. Weather for the Past 2 Weeks in Hereford, Texas, U.S.A.

Now
34 °F

Sunny.


Feels Like: 29 °F
Forecast: 22 / 54 °F
Wind: 6 mph from Southwest

Location: Clovis Municipal

Current Time: Feb 6, 2016 at 10:33:36 AM

Latest Report: Feb 6, 2016 at 9:55 AM


Visibility: 10 mi

Pressure: 30.39 "Hg (26.28 "Hg at 1167m altitude)

Humidity: 56%

Dew point: 19 °F

Location of HerefordLocation

Historic Weather in Hereford — Graph

°F

Hereford Temperature Yesterday

Maximum temperature yesterday: 46 °F (at 1:35 PM)
Minimum temperature yesterday: 21 °F (at 4:35 AM)
Average temperature yesterday: 32 °F

High & Low Weather Summary for the Past Weeks

 TemperatureHumidityPressure
High73 °F (Jan 30, 1:55 PM)93% (Jan 27, 6:55 AM)30.39 "Hg (Jan 27, 6:55 AM)
Low12 °F (Feb 4, 5:55 AM)12% (Jan 24, 5:15 PM)29.49 "Hg (Feb 1, 12:55 PM)
Average38 °F51%30.04 "Hg
* Reported Jan 22 9:15 AM — Feb 6 9:35 AM, Hereford, Weather by CustomWeather, © 2016

Note: Actual official high and low records may vary slightly from our data, if they occured in-between our weather recording intervals... More about our weather records

Advertising

Hereford Weather History for the Previous 24 Hours

 ConditionsComfort  
Time TempWeatherWind HumidityBarometerVisibility
9:35 AM
Sat, Feb 6
32 °FSunny.No wind60%30.39 "Hg10 mi
9:15 AM28 °FSunny.No wind69%30.38 "Hg10 mi
8:55 AM25 °FSunny.No wind74%30.37 "Hg10 mi
8:35 AM21 °FSunny.6 mph80%30.37 "Hg10 mi
8:15 AM18 °FSunny.8 mph79%30.37 "Hg10 mi
7:55 AM16 °FSunny.8 mph79%30.37 "Hg10 mi
7:35 AM16 °FClear.8 mph73%30.37 "Hg10 mi
7:15 AM16 °FClear.6 mph73%30.37 "Hg10 mi
6:55 AM14 °FClear.3 mph79%30.37 "Hg10 mi
6:35 AM16 °FClear.7 mph73%30.36 "Hg10 mi
6:15 AM16 °FClear.8 mph73%30.35 "Hg10 mi
5:55 AM16 °FClear.No wind73%30.35 "Hg10 mi
5:35 AM18 °FClear.3 mph73%30.35 "Hg10 mi
5:15 AM18 °FClear.5 mph73%30.35 "Hg10 mi
4:55 AM18 °FClear.7 mph73%30.35 "Hg10 mi
4:35 AM18 °FClear.9 mph73%30.36 "Hg10 mi
4:15 AM18 °FClear.8 mph73%30.37 "Hg10 mi
3:55 AM18 °FClear.8 mph73%30.37 "Hg10 mi
3:35 AM19 °FClear.8 mph73%30.38 "Hg10 mi
3:15 AM19 °FClear.9 mph73%30.38 "Hg10 mi
2:55 AM19 °FClear.8 mph79%30.38 "Hg10 mi
2:35 AM19 °FClear.8 mph73%30.38 "Hg10 mi
2:15 AM19 °FClear.10 mph73%30.38 "Hg10 mi
1:55 AM19 °FClear.8 mph73%30.38 "Hg10 mi
1:35 AM19 °FClear.9 mph73%30.38 "Hg10 mi
1:15 AM19 °FClear.9 mph73%30.38 "Hg10 mi
12:55 AM23 °FClear.10 mph68%30.38 "Hg10 mi
12:35 AM25 °FClear.9 mph63%30.38 "Hg10 mi
12:15 AM25 °FClear.9 mph63%30.37 "Hg10 mi
11:55 PM
Fri, Feb 5
25 °FClear.10 mph59%30.36 "Hg10 mi
11:35 PM25 °FClear.10 mph69%30.37 "Hg10 mi
11:15 PM23 °FClear.9 mph68%30.37 "Hg10 mi
10:55 PM21 °FClear.10 mph74%30.36 "Hg10 mi
10:15 PM25 °FClear.9 mph63%30.36 "Hg10 mi
9:55 PM27 °FClear.8 mph59%30.37 "Hg10 mi
9:35 PM27 °FClear.10 mph59%30.36 "Hg10 mi
8:55 PM28 °FClear.12 mph55%30.35 "Hg10 mi
7:55 PM28 °FClear.10 mph55%30.35 "Hg10 mi
7:35 PM30 °FClear.10 mph51%30.35 "Hg10 mi
6:35 PM36 °FClear.14 mph44%30.33 "Hg10 mi
6:15 PM37 °FPassing clouds.18 mph41%30.33 "Hg10 mi
5:55 PM39 °FPassing clouds.18 mph42%30.31 "Hg10 mi
5:35 PM39 °FPassing clouds.24 mph42%30.31 "Hg10 mi
5:15 PM39 °FBroken clouds.22 mph42%30.30 "Hg10 mi
4:35 PM43 °FPassing clouds.26 mph39%30.29 "Hg10 mi
3:55 PM45 °FScattered clouds.24 mph39%30.27 "Hg10 mi
3:35 PM43 °FSunny.23 mph42%30.26 "Hg10 mi
2:55 PM45 °FPassing clouds.25 mph39%30.25 "Hg10 mi
2:35 PM45 °FPassing clouds.29 mph34%30.25 "Hg10 mi
2:15 PM46 °FSunny.29 mph32%30.25 "Hg10 mi
1:55 PM46 °FPassing clouds.30 mph32%30.25 "Hg10 mi
1:35 PM46 °FPassing clouds.26 mph32%30.25 "Hg10 mi
1:15 PM45 °FSunny.28 mph31%30.25 "Hg10 mi
12:55 PM45 °FSunny.25 mph31%30.26 "Hg10 mi
12:35 PM45 °FSunny.30 mph31%30.26 "Hg10 mi
12:15 PM43 °FSunny.30 mph34%30.27 "Hg10 mi
11:55 AM43 °FSunny.29 mph36%30.27 "Hg10 mi
11:35 AM41 °FSunny.29 mph39%30.26 "Hg10 mi
11:15 AM39 °FSunny.26 mph42%30.26 "Hg10 mi
10:55 AM39 °FSunny.24 mph42%30.25 "Hg10 mi
10:35 AM37 °FSunny.24 mph45%30.25 "Hg10 mi
10:15 AM36 °FSunny.20 mph44%30.24 "Hg10 mi
Weather by CustomWeather, © 2016

See weather overviewHow to use our weather pages